Regional Weather Roundup
Issued by NWS

Home | Current Version | Previous Version | Graphics & Text | Print | Product List | Glossary Off
Versions: 1 2 3 4 5 6 7 8 9 10 11 12 13 14 15 16 17 18 19 20 21 22 23 24 25 26 27 28 29 30 31 32 33 34 35 36 37 38 39 40 41 42 43 44 45 46 47 48 49 50

000
ASUS43 KMPX 210710
RWRMN
WEATHER ROUNDUP FOR MINNESOTA
NATIONAL WEATHER SERVICE TWIN CITIES/CHANHASSEN MN
100 AM CST SUN JAN 21 2018


NOTE: "FAIR" INDICATES FEW OR NO CLOUDS BELOW 12,000 FEET WITH NO
SIGNIFICANT WEATHER AND/OR OBSTRUCTIONS TO VISIBILITY. N/A MEANS
CURRENT SKY AND/OR WEATHER CONDITIONS ARE NOT AVAILABLE.

MNZ060>063-068>070-210800-
   Twin Cities Metro

CITY           SKY/WX    TMP DP  RH WIND       PRES   REMARKS
TWIN CITIES    CLOUDY    35  32  88 N3        29.95S
ST PAUL        CLOUDY    32  31  96 CALM      29.96S
CRYSTAL        CLOUDY    35  28  75 CALM      29.94S
BLAINE         FAIR      37  32  81 NW5       29.94S
LAKEVILLE        N/A     27  27 100 CALM      29.95R
EDEN PRAIRIE   CLOUDY    36  30  79 N6        29.93S
SOUTH ST PAUL  CLOUDY    32  31  96 CALM      29.95S
LAKE ELMO      CLOUDY    32  32 100 CALM      29.96R
$$
MNZ001>005-007-008-013>017-022>024-027-028-210800-
   Northwest Minnesota

CITY           SKY/WX    TMP DP  RH WIND       PRES   REMARKS
BEMIDJI        FAIR      18  17  94 W3        29.91S
HALLOCK        FOG       12  10  92 CALM      29.94R VSB 1/2
ROSEAU         FAIR      18  14  86 SW6       29.92R WCI   9
WARROAD        FAIR      19  16  86 SW3       29.91S
THIEF RVR FALL FAIR      20  19  96 CALM      29.95R
CROOKSTON      FAIR      19  19 100 W6        29.96R WCI  11
FOSSTON        FAIR      18  16  93 S3        29.94R FOG
DETROIT LAKES  FAIR      25  25 100 CALM      29.95R
MOORHEAD       FAIR      28  27  93 W6        29.97R WCI  22
PARK RAPIDS    FAIR      19  15  84 S5        29.92R FOG     WCI  12
MAHNOMEN       FAIR      23  22  96 SW5       29.94S WCI  16
$$
MNZ006-009>011-018-025>026-210800-
   North Central Minnesota

CITY           SKY/WX    TMP DP  RH WIND       PRES   REMARKS
BAUDETTE       FAIR      19  18  95 SW3       29.90R
FLAG ISLAND    FOG       18  16  93 S6        29.89R VSB 1/2 WCI   9
INTL FALLS     FAIR      23  20  88 SW5       29.90R WCI  17
WASKISH        FAIR      19  18  93 W3        29.92R
BIG FORK       FAIR      18  16  93 CALM      29.91S
LONGVILLE      FAIR      18  18 100 SE3       29.93R
GRAND RAPIDS   FAIR      21  20  96 CALM      29.93S FOG
CRANE LAKE     FAIR      14  12  92 CALM      29.93R
ORR            FAIR      23  21  93 CALM      29.89R
COOK           MOCLDY    16  14  93 CALM      29.92R
WALKER         FAIR      27  25  93 CALM      29.91S
$$
MNZ012-019>021-037-210800-
   Northeast Minnesota

CITY           SKY/WX    TMP DP  RH WIND       PRES   REMARKS
DULUTH         FAIR      27  24  89 NW5       29.91R WCI  22
ELY            FOG       18  16  93 CALM      29.90R VSB 3/4
HIBBING        FOG       13  10  88 CALM      29.90S VSB 1/4
EVELETH        FAIR      15  11  86 CALM      29.92S
DULUTH HARBOR  FAIR      30  27  86 SW5       29.95R WCI  25
TWO HARBORS    FAIR      32  27  80 CALM      29.89S
SILVER BAY     FAIR      21  21 100 CALM      29.89S
GRAND MARAIS     N/A     31  30  96 CALM      29.94R
G MARAIS ARPRT FAIR      21  18  86 CALM      29.88S FOG
$$
MNZ029>031-032-039>041-046>048-054>057-064-210800-
   West Central Minnesota

CITY           SKY/WX    TMP DP  RH WIND       PRES   REMARKS
FERGUS FALLS   FAIR      30  30 100 CALM      29.95S
MORRIS         CLOUDY    36  30  80 NW7       29.95S
ALEXANDRIA     CLOUDY    32  28  85 W3        29.95S
ELBOW LAKE     MOCLDY    29  28  96 W3        29.96S
WADENA         FAIR      28  27  93 W3        29.94S
GLENWOOD       MOCLDY    36  30  80 W3        29.95F
APPLETON       CLOUDY    37  30  75 CALM      29.95F
BENSON         CLOUDY    36  30  80 CALM      29.96F
ORTONVILLE     CLOUDY    36  28  75 N8        29.95F
MADISON        CLOUDY    39  32  75 N8        29.95S
WILLMAR        FAIR      36  30  80 N3        29.96F
$$
MNZ033>034-036-042>043-049>051-058-059-210800-
   Central Minnesota

CITY           SKY/WX    TMP DP  RH WIND       PRES   REMARKS
ST CLOUD       CLOUDY    33  30  88 N5        29.95S WCI  29
SAUK CENTRE      N/A     32  29  89 CALM      29.95F
PAYNESVILLE    CLOUDY    32  31  97 CALM      29.95F
AITKIN         FAIR      27  25  93 W3        29.93S
PINE RIVER     FAIR      23  21  93 CALM      29.97S FOG
BRAINERD       FAIR      28  24  85 CALM      29.95R
STAPLES        FAIR      27  27 100 CALM      29.94S
LONG PRAIRIE   FAIR      30  28  93 CALM      29.95S
LITTLE FALLS   CLOUDY    30  27  86 CALM      29.96S
LITCHFIELD     MOCLDY    37  34  87 NW5       29.95S
BUFFALO        CLOUDY    36  30  77 NW6       29.96S
MAPLE LAKE     CLOUDY    37  32  83 MISG      29.95F
HUTCHINSON     CLOUDY    35  32  88 N7        29.95F WCI  29
$$
MNZ037-044-045-052-053-210800-
   East Central Minnesota

CITY           SKY/WX    TMP DP  RH WIND       PRES   REMARKS
PRINCETON      FAIR      34  30  86 CALM      29.96S
MORA           FAIR      28  27  93 CALM      29.97S
CAMBRIDGE        N/A     36  27  69 NW3       29.96S
RUSH CITY      CLOUDY    32  28  86 CALM      29.96R
MOOSE LAKE     FAIR      30  27  86 CALM      29.92S
HINCKLEY       PTSUNNY   27  27 100 CALM      29.96R
CLOQUET        FAIR      28  25  86 W6        29.92R WCI  22
MCGREGOR       FAIR      28  27  93 SW3       29.94R
$$
MNZ071>073-080-081-089-090-097-098-210800-
   Southwest Minnesota

CITY           SKY/WX    TMP DP  RH WIND       PRES   REMARKS
MONTEVIDEO     CLOUDY    37  30  75 N6        29.94F
GRANITE FALLS  CLOUDY    36  32  84 SW3       29.97R
CANBY          CLOUDY    37  29  73 CALM      29.96S
MARSHALL       CLOUDY    35  29  78 NW6       29.96S WCI  30
REDWOOD FALLS  CLOUDY    35  30  82 W3        29.94F
OLIVIA         CLOUDY    34  30  86 CALM      29.94S
PIPESTONE      CLOUDY    34  28  80 NE5       29.93R WCI  30
WINDOM         CLOUDY    34  19  55 N8        29.93S WCI  27
WORTHINGTON    CLOUDY    31  28  89 N6        29.93S WCI  25
JACKSON        CLOUDY    32  30  93 VRB5      29.92S WCI  27
TRACY          CLOUDY    36  31  82 NW3       29.94S
SLAYTON        CLOUDY    32  28  86 NW3       29.94S
$$
MNZ065>067-074>077-082>085-091>093-210800-
   South Central Minnesota

CITY           SKY/WX    TMP DP  RH WIND       PRES   REMARKS
MANKATO        FAIR      31  29  92 CALM      29.95S
NEW ULM        CLOUDY    30  27  86 NW6       29.94F WCI  24
ST JAMES       CLOUDY    30  28  93 CALM      29.95S
FAIRMONT       CLOUDY    30  29  96 CALM      29.93S
GLENCOE        CLOUDY    36  32  87 CALM      29.93F
FARIBAULT      FOG       25  25 100 CALM      29.94F VSB 1/4
OWATONNA       FAIR      27  27 100 CALM      29.93F FOG
WASECA         FAIR      30  28  93 CALM      29.95S FOG
ALBERT LEA     FAIR      30  28  93 CALM      29.92S FOG
$$
MNZ078>079-086>088-094>096-210800-
   Southeast Minnesota

CITY           SKY/WX    TMP DP  RH WIND       PRES   REMARKS
ROCHESTER      FAIR      30  29  96 N5        29.92F FOG     WCI  25
RED WING       FAIR      28  25  86 CALM      29.95S FOG
STANTON        FAIR      27  26  94 CALM      29.93F FOG
DODGE CENTER   FAIR      28  28 100 N3        29.92F FOG
WINONA         FAIR      27  27 100 CALM      29.94S FOG
AUSTIN         FAIR      28  27  93 N3        29.92S FOG
PRESTON        FAIR      32  29  88 CALM      29.92F
$$
ABBREVIATIONS USED IN REMARKS
   TC - TEMPERATURES IN CELSIUS
  WCI - WIND CHILL INDEX
   HX - HEAT INDEX
  VSB - VISIBILITY
$$




USA.gov is the U.S. government's official web portal to all federal, state and local government web resources and services.